DW3201 Weather Reports


Display with metric or nautical units.
time (UTC)temp
F
wind
direction
speed
MPH
gust
MPH
rain 1hr
in
rain 24hr
in
rain mn
in
humidity
%
barometer
mb
20190419001625 45 328 5.0 10.0 0.00 0.08 0.02 52 1007.5
20190419000624 45 330 4.0 9.0 0.00 0.08 0.02 51 1007.1
20190418235623 45 321 3.0 6.0 0.00 0.08 0.02 51 1006.8
20190418234623 45 325 4.0 9.0 0.00 0.08 0.02 52 1006.8
20190418233622 45 324 4.0 8.0 0.00 0.08 0.02 51 1007.1
20190418232621 45 329 4.0 9.0 0.00 0.08 0.02 49 1007.1
20190418231620 45 332 5.0 10.0 0.00 0.08 0.02 50 1006.8
20190418230619 44 325 4.0 8.0 0.00 0.08 0.02 49 1006.8
20190418225618 44 300 3.0 9.0 0.00 0.08 0.02 49 1006.4
20190418224617 44 316 2.0 4.0 0.00 0.08 0.02 48 1006.4
20190418223616 44 328 4.0 6.0 0.00 0.08 0.02 51 1006.4
20190418222615 44 312 4.0 9.0 0.00 0.08 0.02 55 1006.4
20190418221614 45 325 6.0 11.0 0.00 0.08 0.02 59 1005.8
20190418220613 45 306 3.0 6.0 0.00 0.08 0.02 58 1005.4
20190418215612 45 310 4.0 9.0 0.00 0.08 0.02 57 1005.1
20190418214611 45 316 4.0 9.0 0.00 0.08 0.02 56 1005.1
20190418213609 45 325 7.0 12.0 0.00 0.08 0.02 52 1005.1
20190418212608 45 315 5.0 9.0 0.00 0.08 0.02 49 1005.1
20190418211607 45 326 5.0 9.0 0.00 0.08 0.02 51 1004.7
20190418210606 45 329 5.0 9.0 0.00 0.08 0.02 52 1004.7
20190418205606 45 334 8.0 12.0 0.00 0.08 0.02 54 1004.4
20190418204604 46 322 6.0 10.0 0.00 0.08 0.02 57 1004.1
20190418203604 46 315 4.0 11.0 0.00 0.08 0.02 57 1004.7
20190418202603 46 313 3.0 6.0 0.00 0.08 0.02 55 1005.1
20190418201602 46 300 4.0 8.0 0.00 0.08 0.02 56 1004.7
20190418200601 46 325 4.0 6.0 0.00 0.08 0.02 56 1004.4
20190418195600 46 315 4.0 10.0 0.00 0.08 0.02 57 1004.1
20190418194559 46 293 4.0 7.0 0.00 0.08 0.02 56 1004.1
20190418193558 46 314 4.0 7.0 0.00 0.08 0.02 54 1004.1
20190418192557 46 326 3.0 9.0 0.00 0.08 0.02 54 1003.7
20190418191556 46 297 4.0 7.0 0.00 0.08 0.02 52 1003.7
20190418190555 46 292 2.0 5.0 0.00 0.08 0.02 50 1003.7
20190418185555 46 304 3.0 7.0 0.00 0.08 0.02 50 1003.4
20190418184554 46 312 4.0 6.0 0.00 0.08 0.02 48 1003.0
20190418183553 46 299 4.0 9.0 0.00 0.08 0.02 50 1002.7
20190418182552 46 332 7.0 12.0 0.00 0.08 0.02 48 1002.7
20190418181551 46 302 3.0 10.0 0.00 0.08 0.02 47 1002.4
20190418180550 46 323 3.0 10.0 0.00 0.08 0.02 45 1002.4
20190418175549 46 301 3.0 12.0 0.00 0.08 0.02 44 1002.0
20190418174548 46 325 6.0 9.0 0.00 0.08 0.02 44 1001.7
20190418173548 47 323 5.0 11.0 0.00 0.08 0.02 44 1001.7
20190418172546 47 322 5.0 10.0 0.00 0.08 0.02 46 1001.4
20190418171546 47 317 7.0 11.0 0.00 0.08 0.02 46 1001.4
20190418170545 47 312 5.0 10.0 0.00 0.08 0.02 46 1001.4
20190418165544 48 317 5.0 11.0 0.00 0.08 0.02 43 1001.4
20190418164543 48 312 4.0 10.0 0.00 0.08 0.02 39 1001.4
20190418163542 48 312 4.0 8.0 0.01 0.08 0.02 37 1001.4
20190418162541 48 320 2.0 5.0 0.02 0.08 0.02 35 1001.7
20190418161540 48 314 3.0 6.0 0.02 0.08 0.02 34 1001.7
20190418160539 48 327 2.0 5.0 0.02 0.08 0.02 33 1001.7
20190418155538 48 303 2.0 4.0 0.02 0.08 0.02 33 1002.0
20190418154537 48 306 3.0 5.0 0.02 0.08 0.02 34 1002.0
20190418153536 48 318 2.0 7.0 0.00 0.06 0.01 34 1002.0
20190418152535 48 329 3.0 6.0 0.00 0.06 0.00 35 1002.0
20190418151534 48 277 3.0 7.0 0.00 0.06 0.00 35 1002.0
20190418150534 49 313 3.0 5.0 0.00 0.06 0.00 35 1001.7
20190418145533 49 303 3.0 7.0 0.00 0.06 0.00 33 1001.4
20190418144531 49 315 4.0 7.0 0.00 0.06 0.00 32 1001.0
20190418143530 49 319 3.0 7.0 0.00 0.06 0.00 31 1000.3
20190418142529 49 305 3.0 6.0 0.00 0.06 0.00 31 1000.3
20190418141528 49 316 3.0 6.0 0.00 0.06 0.00 31 1000.0
20190418140526 50 315 3.0 8.0 0.00 0.06 0.00 31 999.7
20190418135525 50 330 5.0 7.0 0.00 0.06 0.00 31 999.7
20190418134524 51 327 2.0 6.0 0.00 0.06 0.00 32 999.7
20190418133522 51 323 3.0 6.0 0.00 0.06 0.00 32 999.7
20190418132522 51 305 2.0 6.0 0.00 0.06 0.00 32 1000.0
20190418131521 51 330 4.0 7.0 0.00 0.06 0.00 33 999.7
20190418130520 52 333 3.0 10.0 0.00 0.06 0.00 34 999.3
20190418125519 53 331 4.0 6.0 0.00 0.06 0.00 35 999.3
20190418124518 53 291 2.0 4.0 0.00 0.06 0.00 36 999.3
20190418123517 53 290 2.0 5.0 0.00 0.06 0.00 39 998.6
20190418122516 53 290 4.0 10.0 0.00 0.06 0.00 42 999.0
20190418121515 54 285 3.0 6.0 0.00 0.06 0.00 44 999.3
20190418120514 54 283 1.0 6.0 0.00 0.06 0.00 46 999.7
20190418115513 54 274 2.0 10.0 0.00 0.06 0.00 47 999.7
20190418114512 54 224 1.0 14.0 0.00 0.06 0.00 47 1000.0
20190418113511 54 282 5.0 8.0 0.00 0.06 0.00 48 1000.0
20190418112510 54 226 3.0 6.0 0.00 0.06 0.00 48 999.3
20190418111505 54 248 2.0 5.0 0.00 0.06 0.00 48 999.7
20190418110504 54 266 2.0 5.0 0.00 0.06 0.00 49 999.3
20190418105503 54 235 2.0 4.0 0.00 0.06 0.00 50 999.3
20190418104502 54 264 2.0 7.0 0.00 0.06 0.00 52 999.0
20190418103502 54 214 2.0 6.0 0.00 0.06 0.00 53 999.0
20190418102501 54 232 3.0 5.0 0.00 0.06 0.00 54 999.3
20190418101500 55 279 0.0 1.0 0.00 0.06 0.00 54 999.3
20190418100459 55 287 0.0 5.0 0.00 0.06 0.00 55 999.0
20190418095458 55 263 3.0 5.0 0.00 0.06 0.00 55 999.0
20190418094457 55 244 2.0 10.0 0.00 0.06 0.00 55 999.0
20190418093456 55 275 3.0 4.0 0.00 0.06 0.00 56 998.6
20190418092455 55 290 4.0 9.0 0.00 0.06 0.00 55 998.6
20190418091454 56 283 3.0 9.0 0.00 0.06 0.00 54 998.3
20190418090453 56 277 4.0 10.0 0.00 0.06 0.00 54 998.6
20190418085452 57 291 7.0 16.0 0.00 0.06 0.00 53 999.3
20190418084451 57 261 4.0 10.0 0.00 0.06 0.00 53 999.0
20190418083450 58 268 5.0 11.0 0.00 0.06 0.00 53 999.3
20190418082449 58 250 5.0 12.0 0.00 0.06 0.00 53 999.3
20190418081448 58 243 3.0 10.0 0.00 0.06 0.00 53 999.0
20190418080448 58 261 4.0 7.0 0.00 0.06 0.00 53 999.0
20190418075447 58 288 4.0 9.0 0.00 0.06 0.00 53 998.3
20190418074446 59 246 2.0 10.0 0.00 0.06 0.00 52 998.0
20190418073445 60 265 3.0 11.0 0.00 0.06 0.00 52 998.3
20190418072444 61 269 5.0 16.0 0.00 0.06 0.00 49 998.6
20190418071443 61 253 3.0 11.0 0.00 0.06 0.00 49 998.6
20190418070442 62 232 2.0 10.0 0.00 0.06 0.00 51 999.0
20190418065441 63 278 5.0 9.0 0.00 0.06 0.00 50 998.6
20190418064440 64 279 2.0 10.0 0.00 0.06 0.00 48 998.6
20190418063439 65 240 2.0 10.0 0.00 0.06 0.00 44 998.6
20190418062438 65 215 4.0 11.0 0.00 0.06 0.00 44 998.3
20190418061437 65 229 6.0 11.0 0.00 0.06 0.00 46 998.3
20190418060436 65 214 4.0 11.0 0.00 0.06 0.00 47 998.3
20190418055434 65 217 3.0 6.0 0.00 0.06 0.00 47 998.0
20190418054433 65 234 4.0 11.0 0.00 0.06 0.00 47 998.0
20190418053432 65 208 3.0 10.0 0.00 0.06 0.00 49 998.0
20190418052431 65 222 3.0 8.0 0.00 0.06 0.00 51 998.0
20190418051430 65 217 5.0 13.0 0.00 0.06 0.00 53 997.6
20190418050429 66 218 4.0 7.0 0.00 0.06 0.00 54 997.3
20190418045429 66 213 3.0 11.0 0.00 0.06 0.06 55 997.3
20190418044428 66 216 5.0 9.0 0.00 0.06 0.06 55 997.3
20190418043420 66 204 4.0 7.0 0.00 0.06 0.06 55 997.6
20190418042419 66 198 4.0 11.0 0.00 0.06 0.06 55 998.0
20190418041419 67 208 3.0 11.0 0.00 0.06 0.06 55 998.3
20190418040417 67 208 5.0 10.0 0.00 0.06 0.06 55 998.6
20190418035417 67 196 4.0 8.0 0.00 0.06 0.06 56 998.6
20190418034416 67 188 4.0 13.0 0.00 0.06 0.06 57 998.6
20190418033415 67 208 5.0 14.0 0.00 0.06 0.06 57 999.0
20190418032413 66 210 5.0 13.0 0.00 0.06 0.06 54 999.0
20190418031413 66 210 6.0 11.0 0.00 0.06 0.06 52 999.0
20190418030411 66 224 5.0 13.0 0.00 0.06 0.06 52 998.6
20190418025410 65 199 4.0 8.0 0.03 0.06 0.06 42 998.6
20190418024409 64 196 4.0 7.0 0.05 0.06 0.06 28 999.0
20190418023409 62 220 1.0 2.0 0.06 0.06 0.06 28 998.6
20190418022408 62 217 2.0 3.0 0.06 0.06 0.06 28 998.6
20190418021406 60 198 2.0 5.0 0.06 0.06 0.06 29 999.0
20190418020405 59 80 0.0 3.0 0.06 0.06 0.06 31 999.0
20190418015405 58 82 0.0 3.0 0.03 0.03 0.03 46 999.0
20190418014404 58 111 1.0 2.0 0.01 0.01 0.01 53 999.0
20190418013403 58 110 0.0 0.0 0.00 0.00 0.00 57 999.0
20190418012402 58 110 0.0 0.0 0.00 0.00 0.00 58 998.6
20190418011401 59 110 0.0 0.0 0.00 0.00 0.00 59 999.0
20190418010400 59 110 0.0 1.0 0.00 0.00 0.00 59 999.0
20190418005359 59 110 0.0 2.0 0.00 0.00 0.00 60 999.0
20190418004358 59 110 0.0 2.0 0.00 0.00 0.00 60 999.0
20190418003356 59 110 2.0 5.0 0.00 0.00 0.00 61 999.0
20190418002355 60 140 0.0 2.0 0.00 0.00 0.00 62 999.3